Location: Ammerl�gen
(47.2167°N, 9.6000°E)
Time: 06:11:51
(UTC+00:00)

Meteor 2-2 Rocket - Pass Details

Date: 21 April 2021
Orbit: 852 x 929 km, 81.3° (Epoch: 15 May)

Event Time Altitude Azimuth Distance (km) Brightness Sun altitude
Exits shadow 21:16:21 59° 170° (S) 1,011 4.2 -24.5°
Maximum altitude 21:17:29 80° 99° (E) 895 4.1 -24.6°
Drops below altitude 10° 21:23:12 10° 13° (NNE) 2,515 7.2 -25.1°
Sets 21:25:37 0° 13° (NNE) 3,449 8.0 -25.3°
